| time (UTC) | temp F | wind direction | speed MPH | gust MPH | rain 1hr in | rain 24hr in | rain mn in | humidity % | barometer mb |
| 20260505040059 | 58 | 0 | 2.0 | 8.0 | 0.00 | 0.00 | 0.00 | 57 | 1009.7 |
| 20260505034604 | 58 | 212 | 1.0 | 6.0 | 0.00 | 0.00 | 0.00 | 57 | 1009.9 |
| 20260505033054 | 58 | 178 | 1.0 | 7.0 | 0.00 | 0.00 | 0.00 | 56 | 1009.8 |
| 20260505031547 | 58 | 156 | 2.0 | 7.0 | 0.00 | 0.00 | 0.00 | 56 | 1009.7 |
| 20260505030057 | 58 | 139 | 3.0 | 7.0 | 0.00 | 0.00 | 0.00 | 57 | 1009.8 |
| 20260505024606 | 59 | 107 | 2.0 | 9.0 | 0.00 | 0.00 | 0.00 | 56 | 1009.8 |
| 20260505023052 | 59 | 256 | 1.0 | 8.0 | 0.00 | 0.00 | 0.00 | 54 | 1009.8 |
| 20260505021552 | 59 | 134 | 1.0 | 10.0 | 0.00 | 0.00 | 0.00 | 55 | 1009.9 |
| 20260505014550 | 59 | 136 | 1.0 | 7.0 | 0.00 | 0.00 | 0.00 | 54 | 1009.8 |
| 20260505013053 | 60 | 0 | 2.0 | 5.0 | 0.00 | 0.00 | 0.00 | 53 | 1009.6 |
| 20260505011557 | 60 | 0 | 0.0 | 5.0 | 0.00 | 0.00 | 0.00 | 52 | 1009.4 |
| 20260505010108 | 61 | 101 | 3.0 | 8.0 | 0.00 | 0.00 | 0.00 | 52 | 1009.3 |
| 20260505004601 | 61 | 221 | 2.0 | 6.0 | 0.00 | 0.00 | 0.00 | 51 | 1009.1 |
| 20260505003051 | 62 | 0 | 2.0 | 9.0 | 0.00 | 0.00 | 0.00 | 48 | 1008.8 |
| 20260505001549 | 63 | 148 | 3.0 | 10.0 | 0.00 | 0.00 | 0.00 | 46 | 1008.5 |
| 20260505000100 | 64 | 0 | 0.0 | 4.0 | 0.00 | 0.00 | 0.00 | 42 | 1008.1 |
| 20260504234547 | 65 | 0 | 0.0 | 4.0 | 0.00 | 0.00 | 0.00 | 41 | 1007.9 |
| 20260504233048 | 67 | 229 | 4.0 | 10.0 | 0.00 | 0.00 | 0.00 | 38 | 1007.7 |
| 20260504231618 | 68 | 219 | 3.0 | 11.0 | 0.00 | 0.00 | 0.00 | 35 | 1007.6 |
| 20260504230051 | 68 | 239 | 7.0 | 13.0 | 0.00 | 0.00 | 0.00 | 35 | 1007.4 |
| 20260504224549 | 69 | 221 | 8.0 | 16.0 | 0.00 | 0.00 | 0.00 | 34 | 1007.3 |
| 20260504223051 | 69 | 241 | 6.0 | 16.0 | 0.00 | 0.00 | 0.00 | 33 | 1007.4 |
| 20260504221641 | 70 | 281 | 4.0 | 19.0 | 0.00 | 0.00 | 0.00 | 32 | 1007.4 |
| 20260504220052 | 70 | 196 | 7.0 | 19.0 | 0.00 | 0.00 | 0.00 | 34 | 1007.6 |
| 20260504214550 | 70 | 240 | 9.0 | 17.0 | 0.00 | 0.00 | 0.00 | 32 | 1007.7 |
| 20260504213054 | 71 | 256 | 9.0 | 15.0 | 0.00 | 0.00 | 0.00 | 32 | 1007.9 |
| 20260504211549 | 71 | 239 | 8.0 | 16.0 | 0.00 | 0.00 | 0.00 | 31 | 1007.9 |
| 20260504210050 | 71 | 257 | 4.0 | 11.0 | 0.00 | 0.00 | 0.00 | 32 | 1008.0 |
| 20260504204549 | 71 | 238 | 7.0 | 13.0 | 0.00 | 0.00 | 0.00 | 31 | 1008.1 |
| 20260504203046 | 71 | 193 | 8.0 | 20.0 | 0.00 | 0.00 | 0.00 | 31 | 1008.0 |
| 20260504201550 | 71 | 264 | 7.0 | 16.0 | 0.00 | 0.00 | 0.00 | 33 | 1008.1 |
| 20260504200049 | 70 | 248 | 6.0 | 21.0 | 0.00 | 0.00 | 0.00 | 32 | 1008.3 |
| 20260504194551 | 69 | 235 | 5.0 | 16.0 | 0.00 | 0.00 | 0.00 | 33 | 1008.4 |
| 20260504193055 | 67 | 192 | 6.0 | 16.0 | 0.00 | 0.00 | 0.00 | 32 | 1008.5 |
| 20260504191610 | 68 | 250 | 6.0 | 21.0 | 0.00 | 0.00 | 0.00 | 34 | 1008.6 |
| 20260504190050 | 69 | 208 | 7.0 | 16.0 | 0.00 | 0.00 | 0.00 | 32 | 1008.7 |
| 20260504184601 | 68 | 232 | 10.0 | 20.0 | 0.00 | 0.00 | 0.00 | 34 | 1008.9 |
| 20260504183047 | 68 | 223 | 10.0 | 18.0 | 0.00 | 0.00 | 0.00 | 32 | 1009.0 |
| 20260504181548 | 68 | 212 | 6.0 | 17.0 | 0.00 | 0.00 | 0.00 | 34 | 1009.0 |
| 20260504180051 | 67 | 273 | 8.0 | 17.0 | 0.00 | 0.00 | 0.00 | 35 | 1009.3 |
| 20260504174549 | 67 | 155 | 8.0 | 20.0 | 0.00 | 0.00 | 0.00 | 36 | 1009.6 |
| 20260504173051 | 66 | 254 | 9.0 | 18.0 | 0.00 | 0.00 | 0.00 | 36 | 1009.6 |
| 20260504171546 | 65 | 247 | 10.0 | 21.0 | 0.00 | 0.00 | 0.00 | 35 | 1009.8 |
| 20260504081553 | 42 | 196 | 1.0 | 3.0 | 0.00 | 0.00 | 0.00 | 65 | 1011.9 |
| 20260504050123 | 43 | 63 | 2.0 | 4.0 | 0.00 | 0.00 | 0.00 | 64 | 1011.2 |
| 20260504044550 | 43 | 63 | 0.0 | 3.0 | 0.00 | 0.00 | 0.00 | 64 | 1011.3 |
| 20260504043051 | 43 | 63 | 2.0 | 3.0 | 0.00 | 0.00 | 0.00 | 63 | 1011.2 |
| 20260504041549 | 43 | 63 | 1.0 | 3.0 | 0.00 | 0.00 | 0.00 | 60 | 1011.3 |